Regional Weather Roundup
Issued by NWS Newport/Morehead, NC

Current Version | Previous Version | Graphics & Text | Print | Product List | Glossary Off
Versions: 1 2 3 4 5 6 7 8 9 10 11 12 13 14 15 16 17 18 19 20 21 22 23 24 25 26 27 28 29 30 31 32 33 34 35 36 37 38 39 40 41 42 43 44 45 46 47 48 49 50

000
ASUS42 KMHX 022022
RWRMHX
WEATHER ROUNDUP FOR EASTERN NORTH CAROLINA
NATIONAL WEATHER SERVICE NEWPORT/MOREHEAD CITY NC
400 PM EDT TUE SEP 02 2014

NOTE: "FAIR" INDICATES FEW OR NO CLOUDS BELOW 12,000 FEET
WITH NO SIGNIFICANT WEATHER AND/OR OBSTRUCTIONS TO VISIBILITY

NCZ015>017-031-032-045>047-102-103-022100-
NORTH COAST

CITY           SKY/WX    TMP DP  RH WIND       PRES   REMARKS
EDENTON        MOSUNNY   93  71  48 W9        29.97F HX 100
ELIZABETH CITY MOSUNNY   93  73  52 SW14      29.96F HX 102
KITTY HAWK     PTCLDY    92  76  58 S9        29.96F HX 105
MANTEO         PTSUNNY   88  78  73 S18       29.97F HX 102

$$

NCZ045>047-081-094-103-104-022100-
CENTRAL COAST

CITY           SKY/WX    TMP DP  RH WIND       PRES   REMARKS
FRISCO         SUNNY     84  77  79 SW14G22   30.01F
SWANQUARTER      N/A     90 N/A N/A S16       29.94S

$$

NCZ095-097-098-100-101-022100-
SOUTHERN COAST

CITY           SKY/WX    TMP DP  RH WIND       PRES   REMARKS
BEAUFORT       SUNNY     86  77  74 SW17      30.02F
CEDAR ISLAND     N/A     90 N/A N/A S16       30.03F
JACKSONVILLE   SUNNY     88  75  65 S15G24    30.01F
NEWPORT        NOT AVBL
PINEY ISLAND   PTCLDY    91  77  63 SW17G23   30.00F HX 104
WILMINGTON     MOSUNNY   89  74  60 S12       30.02F


$$

NCZ011>013-027>030-043-044-078>080-089-090>093-098-022100-
COASTAL PLAIN

CITY           SKY/WX    TMP DP  RH WIND       PRES   REMARKS
AHOSKIE        SUNNY     92  71  51 S3        29.96F
CLINTON        SUNNY     96  72  46 SW6       29.98F HX 104
ELIZABETHTOWN  SUNNY     94  71  47 SW13      29.99F HX 102
GOLDSBORO      SUNNY     96  74  49 S7        29.96F HX 107
GREENVILLE     SUNNY     93  72  49 SW10      30.00F HX 100
HAVELOCK       SUNNY     89  74  60 SW14      30.02F
KENANSVILLE    SUNNY     93  69  45 S5        30.00F
KINSTON        MOSUNNY   93  72  49 SW10      29.99F HX 100
NEW BERN       MOSUNNY   93  77  59 S10       30.00F HX 107
RICHLANDS      MOSUNNY   91  75  59 S17G23    29.99F HX 102
ROANOKE RAPIDS NOT AVBL
ROCKY MOUNT    SUNNY     95  68  41 SW8       29.98F
WASHINGTON     MOSUNNY   93  72  51 SW8       29.98F HX 100
WHITEVILLE     SUNNY     91  73  55 S10G17    29.99F

$$

AMZ130-135-150-152-154-156-158-170-250-252-270-ANZ085-086-088-633-658-670-022100-
MARINE OBSERVATIONS

STATION/POSITION TIME  TEMP    WIND        PRES    WAVE   SWELL
                       AIR SEA DIR/SP/G            HT/PER HT/PER
                 (UTC) (F)     (DEG/KT/KT) (MB)    (FT/S) (FT/S)
CHESAPEAKE LIGHT 2000   83     180/ 22/ 23 1013.9
BUOY 44014       2000   80 78  200/ 12/ 14 1014.4    3/ 5   2/10
DUCK             2000   91 75  220/  7/ 10 1014.1
2E DUCK          2000                        N/A     2/12   2/12
OREGON INLET     2000   83 84  190/ 20/ 23 1015.3
BUOY 44095       2000      80                N/A     3/12   2/12
20E OREGON INLET NOT AVBL
HATTERAS CG      2000   85 84  210/ 12/ 18 1016.8
DIAMOND BUOY     2000   82     210/ 17/ 19 1016.3    3/ 4   2/ 9
CAPE LOOKOUT     2000   84     220/ 13/ 17 1016.5
BEAUFORT LAB     2000   84 83  210/ 12/ 17 1016.2
30 SE NEW RIVER  2000   83 83  210/ 14/ 16 1017.2    3/ 9   2/ 9
5 SE WRIGHTSVILL 2000   80 83                N/A
BUOY 41002       1944   82 84  210/ 12/ 14 1019.5    3/11   3/11
BUOY 41004       2000   82 84  170/ 10/ 12 1016.3    2/ 8   2/ 8

$$


USA.gov is the U.S. government's official web portal to all federal, state and local government web resources and services.